Date_and_time,latitude,longitude,wind_speed,RelWindDirFrom,WindDirFrom,air_pressure,air_temperature,relative_humidity,Temp,platform_speed_wrt_ground,air_pressure_at_mean_sea_level,platform_orientation
2019-10-11 23:40,50.6304233333333,-96.9807566666667,28.3,36.1,349,969.56,1.7,101,6.00,0.0,996.74,48.3
2019-10-11 23:50,50.6304416666667,-96.9807566666667,25.4,34.6,352,969.62,1.9,101,6.04,0.0,996.80,48.3
2019-10-12 00:00,50.6304383333333,-96.9807533333333,27.1,35.1,351,969.52,1.8,101,6.06,0.0,996.70,49.4
2019-10-12 00:10,50.6304266666667,-96.98077,28.7,40.3,353,969.32,1.9,101,6.04,0.0,996.49,49.4
2019-10-12 00:20,50.63043,-96.9807616666667,29.7,36.8,356,969.17,2.0,101,6.01,0.0,996.33,49.4
2019-10-12 00:30,50.63042,-96.980775,30.2,38.8,357,969.02,2.0,101,5.98,0.0,996.17,49.4
2019-10-12 00:40,50.63043,-96.98077,30.5,36.1,354,968.88,1.9,101,5.98,0.0,996.02,49.4
2019-10-12 00:50,50.63043,-96.98076,28.7,37.4,353,968.89,1.9,101,6.00,0.0,996.04,49.4
2019-10-12 01:00,50.6304366666667,-96.980765,24.3,35.0,349,969.19,1.9,101,6.00,0.0,996.34,192.6
2019-10-12 01:10,50.6304333333333,-96.9807566666667,20.3,33.2,344,969.27,1.6,101,6.15,0.0,996.43,192.6
2019-10-12 01:20,50.630435,-96.9807616666667,16.9,24.7,338,969.33,1.2,101,5.99,0.0,996.51,192.6
2019-10-12 01:30,50.630435,-96.9807616666667,17.5,31.7,340,969.31,1.3,101,5.97,0.0,996.50,192.6
2019-10-12 01:40,50.6304366666667,-96.9807616666667,17.4,23.4,339,969.28,1.2,101,5.95,0.0,996.46,192.6
2019-10-12 01:50,50.630435,-96.98076,17.3,24.5,340,969.29,1.2,101,5.92,0.0,996.47,192.6
2019-10-12 02:00,50.630435,-96.9807616666667,17.2,23.4,337,969.26,1.1,101,5.92,0.0,996.45,0.0
2019-10-12 02:10,50.6304216666667,-96.9807733333333,19.0,29.9,344,969.11,1.4,101,5.91,0.0,996.28,0.0
2019-10-12 02:20,50.6304333333333,-96.9807666666667,22.7,32.4,351,968.84,1.8,101,5.89,0.0,995.98,0.0
2019-10-12 02:30,50.6304333333333,-96.9807683333333,19.6,28.4,347,968.89,1.9,102,5.87,0.0,996.03,0.0
2019-10-12 02:40,50.6304333333333,-96.98078,20.6,29.4,351,968.77,2.0,102,5.85,0.0,995.90,0.0
2019-10-12 02:50,50.6304233333333,-96.9807716666667,22.1,33.2,351,968.67,2.0,102,5.84,0.0,995.80,0.0
2019-10-12 03:00,50.630435,-96.980765,21.3,33.2,351,968.77,2.0,102,5.83,0.0,995.91,234.7
2019-10-12 03:10,50.6304316666667,-96.9807666666667,24.9,31.5,353,968.58,2.1,102,5.82,0.0,995.74,234.7
2019-10-12 03:20,50.630425,-96.9807583333333,17.5,29.9,345,968.77,1.9,102,5.82,0.0,995.94,234.7
2019-10-12 03:30,50.63042,-96.9807516666667,16.8,24.8,342,968.76,1.4,102,5.82,0.0,995.96,234.7
2019-10-12 03:40,50.6304133333333,-96.9807666666667,15.2,20.0,342,968.73,1.4,102,5.82,0.0,995.92,234.7
2019-10-12 03:50,50.6304233333333,-96.980765,20.0,32.3,350,968.44,1.7,102,5.82,0.0,995.62,234.7
2019-10-12 04:00,50.63044,-96.9807766666667,20.1,29.1,350,968.43,2.1,102,5.81,0.0,995.57,347.4
2019-10-12 04:10,50.6304316666667,-96.980765,19.9,30.0,348,968.36,1.9,101,5.80,0.0,995.49,347.4
2019-10-12 04:20,50.63043,-96.9807633333333,22.4,27.5,350,968.03,2.1,101,5.80,0.0,995.13,347.4
2019-10-12 04:30,50.63043,-96.9807633333333,17.4,29.1,345,967.97,1.9,101,5.81,0.0,995.08,347.4
2019-10-12 04:40,50.630425,-96.9807666666667,14.1,21.2,337,968.17,1.1,101,5.79,0.0,995.32,347.4
2019-10-12 04:50,50.630425,-96.9807716666667,14.1,20.2,336,968.25,1.0,101,5.78,0.0,995.41,347.4
2019-10-12 05:00,50.6304266666667,-96.9807633333333,13.5,17.1,335,968.17,1.0,101,5.77,0.0,995.32,194.5
2019-10-12 05:10,50.63044,-96.980755,13.8,19.0,336,968.00,1.0,101,5.76,0.0,995.16,194.5
2019-10-12 05:20,50.6304333333333,-96.9807833333333,14.2,20.4,336,968.04,0.9,101,5.74,0.0,995.23,194.5
2019-10-12 05:30,50.6304266666667,-96.980765,15.3,23.2,337,967.93,1.0,101,5.72,0.0,995.11,194.5
2019-10-12 05:40,50.6304316666667,-96.980765,16.4,22.8,339,967.85,1.0,101,5.71,0.0,995.01,194.5
2019-10-12 05:50,50.6304316666667,-96.980765,16.5,22.6,342,967.86,1.1,101,5.70,0.0,995.00,194.5
2019-10-12 06:00,50.6304283333333,-96.9807633333333,16.2,23.8,340,967.71,1.2,101,5.70,0.0,994.85,360.0
2019-10-12 06:10,50.63043,-96.98075,17.1,22.5,340,967.72,1.0,101,5.70,0.0,994.86,360.0
2019-10-12 06:20,50.630435,-96.9807783333333,16.8,21.6,343,967.78,1.1,101,5.70,0.0,994.93,360.0
2019-10-12 06:30,50.63044,-96.980755,15.8,22.4,342,967.74,1.2,101,5.70,0.0,994.92,360.0
2019-10-12 06:40,50.6304316666667,-96.9807466666667,15.1,19.2,336,967.55,1.1,101,5.71,0.0,994.74,360.0
2019-10-12 06:50,50.6304316666667,-96.9807516666667,14.4,22.2,341,967.59,1.1,101,5.71,0.0,994.78,360.0
2019-10-12 07:00,50.630435,-96.9807533333333,15.3,21.4,340,967.80,1.1,101,5.70,0.0,994.99,113.6
2019-10-12 07:10,50.6304316666667,-96.9807533333333,15.1,20.1,340,967.75,1.0,101,5.69,0.0,994.95,113.6
2019-10-12 07:20,50.63043,-96.980745,14.7,19.9,341,967.87,1.0,101,5.69,0.0,995.07,113.6
2019-10-12 07:30,50.630435,-96.9807533333333,15.2,20.6,342,968.01,1.0,102,5.69,0.0,995.21,113.6
2019-10-12 07:40,50.6304366666667,-96.9807683333333,14.0,21.0,338,967.96,1.0,102,5.69,0.0,995.15,113.6
2019-10-12 07:50,50.630435,-96.9807666666667,13.9,19.0,337,967.92,0.9,102,5.68,0.0,995.11,113.6
2019-10-12 08:00,50.630435,-96.9807616666667,14.3,19.6,341,967.80,1.0,102,5.67,0.0,994.99,14.5
2019-10-12 08:10,50.6304333333333,-96.9807533333333,16.9,24.3,346,967.97,1.1,102,5.67,0.0,995.15,14.5
2019-10-12 08:20,50.6304283333333,-96.9807433333333,17.3,23.2,347,967.83,1.3,102,5.68,0.0,995.00,14.5
2019-10-12 08:30,50.630425,-96.9807466666667,18.6,24.9,351,967.40,1.6,102,5.67,0.0,994.55,14.5
2019-10-12 08:40,50.6304233333333,-96.98075,21.5,26.5,353,967.42,2.1,102,5.65,0.0,994.54,14.5
2019-10-12 08:50,50.6304216666667,-96.98075,23.6,28.1,355,967.36,2.2,102,5.65,0.0,994.49,14.5
2019-10-12 09:00,50.6304216666667,-96.9807533333333,24.0,28.7,356,967.42,2.2,102,5.65,0.0,994.55,119.2
2019-10-12 09:10,50.6304216666667,-96.9807516666667,22.9,27.3,357,967.56,2.3,102,5.66,0.0,994.68,119.2
2019-10-12 09:20,50.6304216666667,-96.98075,21.0,26.1,355,967.68,2.3,102,5.65,0.0,994.80,119.2
2019-10-12 09:30,50.6304233333333,-96.9807516666667,21.3,24.6,356,967.76,2.3,102,5.66,0.0,994.89,119.2
2019-10-12 09:40,50.630425,-96.9807516666667,20.9,24.6,355,967.84,2.6,102,5.65,0.0,994.96,119.2
2019-10-12 09:50,50.630425,-96.9807516666667,19.2,26.4,353,967.95,2.5,102,5.66,0.0,995.08,119.2
2019-10-12 10:00,50.630425,-96.9807516666667,19.4,24.5,4,967.97,2.8,102,5.66,0.0,995.07,142.0
2019-10-12 10:10,50.63043,-96.9807716666667,17.8,21.7,18,968.18,3.3,102,5.65,0.0,995.26,142.0
2019-10-12 10:20,50.630415,-96.9807566666667,19.2,22.2,22,968.11,3.5,102,5.66,0.0,995.16,142.0
2019-10-12 10:30,50.630415,-96.9807633333333,19.1,22.8,28,968.25,3.6,102,5.66,0.0,995.27,142.0
2019-10-12 10:40,50.6304133333333,-96.98076,17.3,21.0,28,968.38,3.7,101,5.67,0.0,995.40,142.0
2019-10-12 10:50,50.630415,-96.9807583333333,16.2,19.2,24,968.42,3.6,100,5.66,0.0,995.44,142.0
2019-10-12 11:00,50.6304166666667,-96.98076,15.8,25.9,10,968.44,3.2,100,5.65,0.0,995.48,360.0
2019-10-12 11:10,50.6304183333333,-96.9807583333333,15.7,18.8,15,968.60,3.4,100,5.64,0.0,995.64,360.0
2019-10-12 11:20,50.63042,-96.9807583333333,18.1,23.2,4,968.66,3.4,99,5.61,0.0,995.69,360.0
2019-10-12 11:30,50.6304216666667,-96.9807566666667,18.3,23.9,4,968.66,2.7,100,5.59,0.0,995.72,360.0
2019-10-12 11:40,50.6304233333333,-96.9807566666667,20.2,24.5,355,968.59,2.3,100,5.58,0.0,995.67,360.0
2019-10-12 11:50,50.630425,-96.9807566666667,15.6,23.5,345,968.80,2.3,100,5.56,0.0,995.87,360.0
2019-10-12 12:00,50.6304266666667,-96.9807566666667,9.0,15.7,333,968.96,1.6,100,5.56,0.0,996.04,311.7
2019-10-12 12:10,50.6304266666667,-96.9807566666667,10.5,19.3,342,968.96,1.6,101,5.60,0.0,996.03,311.7
2019-10-12 12:20,50.63043,-96.9807566666667,10.5,16.6,347,969.05,1.5,101,5.62,0.0,996.13,311.7
2019-10-12 12:30,50.63042,-96.9807533333333,14.4,21.3,357,969.14,2.1,101,5.61,0.0,996.18,311.7
2019-10-12 12:40,50.630415,-96.980765,15.4,21.3,8,969.26,2.6,101,5.58,0.0,996.28,311.7
2019-10-12 12:50,50.63042,-96.980765,10.2,14.3,340,969.65,1.5,100,5.56,0.0,996.76,311.7
2019-10-12 13:00,50.6304216666667,-96.9807616666667,10.1,13.0,337,969.77,0.9,100,5.57,0.0,996.91,192.6
2019-10-12 13:10,50.63043,-96.9807733333333,10.1,13.5,331,969.87,0.8,100,5.61,0.0,997.01,192.6
2019-10-12 13:20,50.6304283333333,-96.980775,11.6,19.9,336,969.77,1.0,101,5.63,0.0,996.94,192.6
2019-10-12 13:30,50.6304316666667,-96.98077,10.1,14.1,325,969.85,0.9,101,5.61,0.0,997.04,192.6
2019-10-12 13:40,50.630435,-96.9807666666667,11.1,14.7,321,969.86,0.9,101,5.61,0.0,997.06,192.6
2019-10-12 13:50,50.6304333333333,-96.980765,10.9,15.4,320,969.90,0.8,101,5.60,0.0,997.14,192.6
2019-10-12 14:00,50.6304316666667,-96.9807666666667,11.2,15.2,314,969.95,0.7,100,5.59,0.0,997.20,360.0
2019-10-12 14:10,50.6304316666667,-96.9807666666667,10.0,14.7,320,970.13,0.7,100,5.58,0.0,997.38,360.0
2019-10-12 14:20,50.6304316666667,-96.980765,9.4,12.6,325,970.17,0.7,100,5.59,0.0,997.39,360.0
2019-10-12 14:30,50.6304433333333,-96.980735,8.8,13.8,327,970.24,0.8,100,5.59,0.0,997.43,360.0
2019-10-12 15:50,50.6304183333333,-96.9807833333333,10.3,17.6,316,970.71,1.3,100,5.46,0.0,997.99,18.9
2019-10-12 16:00,50.63042,-96.98077,10.9,15.2,316,970.72,1.5,100,5.47,0.0,997.99,270.0
2019-10-12 16:10,50.6304216666667,-96.980765,8.7,13.1,318,970.78,1.6,100,5.47,0.0,998.05,270.0
2019-10-12 16:20,50.630425,-96.9807666666667,8.3,11.9,318,970.76,1.7,100,5.47,0.0,998.02,270.0
2019-10-12 16:30,50.630435,-96.9807633333333,9.6,14.0,313,970.84,1.5,100,5.47,0.0,998.11,270.0
2019-10-12 16:40,50.6304283333333,-96.9807633333333,8.9,12.7,317,970.94,1.6,100,5.48,0.0,998.20,270.0
2019-10-12 16:50,50.6304266666667,-96.980765,8.8,12.5,318,971.13,1.7,100,5.51,0.0,998.39,270.0
2019-10-12 17:00,50.6304283333333,-96.9807666666667,9.4,13.4,315,971.22,1.8,100,5.50,0.0,998.47,360.0
2019-10-12 17:10,50.6304283333333,-96.980765,8.9,13.8,321,971.16,2.1,100,5.49,0.0,998.39,360.0
2019-10-12 17:20,50.6304266666667,-96.9807633333333,8.8,11.7,319,971.25,2.3,100,5.51,0.0,998.47,360.0
2019-10-12 17:30,50.630435,-96.9807616666667,8.4,12.0,313,971.35,2.1,100,5.52,0.0,998.58,360.0
2019-10-12 17:40,50.6304366666667,-96.98076,9.3,13.4,320,971.44,2.2,100,5.52,0.0,998.66,360.0
2019-10-12 17:50,50.6304366666667,-96.98076,8.0,11.4,320,971.51,2.4,100,5.52,0.0,998.72,360.0
2019-10-12 18:00,50.630435,-96.9807583333333,8.3,11.0,318,971.57,2.4,100,5.52,0.0,998.77,142.0
2019-10-12 18:10,50.6304333333333,-96.98076,9.3,13.6,315,971.64,2.3,100,5.53,0.0,998.85,142.0
2019-10-12 18:20,50.63043,-96.98076,8.7,11.8,317,971.73,2.3,100,5.53,0.0,998.95,142.0
2019-10-12 18:30,50.63043,-96.9807616666667,8.7,11.8,316,971.86,2.4,100,5.54,0.0,999.07,142.0
2019-10-12 18:40,50.6304283333333,-96.9807633333333,8.1,12.1,313,971.91,2.1,100,5.56,0.0,999.13,142.0
2019-10-12 18:50,50.6304216666667,-96.9807716666667,8.8,12.3,317,971.92,2.1,100,5.58,0.0,999.14,142.0
2019-10-12 19:00,50.6304183333333,-96.9807566666667,9.4,14.3,322,971.96,2.2,100,5.59,0.0,999.16,167.4
2019-10-12 19:10,50.6304116666667,-96.980755,9.9,14.5,317,971.97,2.1,100,5.60,0.0,999.17,167.4
2019-10-12 19:20,50.6304133333333,-96.9807616666667,8.3,11.3,320,972.11,2.0,100,5.60,0.0,999.32,167.4
2019-10-12 19:30,50.630415,-96.9807616666667,8.9,12.2,320,972.16,1.8,100,5.60,0.0,999.38,167.4
2019-10-12 19:40,50.6304183333333,-96.9807616666667,8.6,12.2,316,972.31,1.5,100,5.61,0.0,999.54,167.4
2019-10-12 19:50,50.63042,-96.9807616666667,7.4,10.3,316,972.27,1.8,100,5.62,0.0,999.48,167.4
2019-10-12 20:00,50.63041,-96.98076,8.3,11.5,314,972.44,2.1,100,5.62,0.0,999.65,156.5
2019-10-12 20:10,50.6304316666667,-96.98076,8.5,11.5,309,972.61,2.1,100,5.63,0.0,999.82,156.5
2019-10-12 20:20,50.6304283333333,-96.9807566666667,8.2,11.4,312,972.77,2.1,100,5.64,0.0,999.99,156.5
2019-10-12 20:30,50.6304366666667,-96.980765,8.4,12.0,312,972.84,2.2,100,5.64,0.0,1000.07,156.5
2019-10-12 20:40,50.6304383333333,-96.980755,7.6,9.9,307,972.90,2.4,100,5.65,0.0,1000.12,156.5
2019-10-12 20:50,50.6304483333333,-96.980775,7.5,11.0,310,972.98,2.4,100,5.65,0.0,1000.19,156.5
2019-10-12 21:00,50.630445,-96.9807616666667,8.2,11.0,310,973.15,2.4,99,5.66,0.0,1000.37,38.0
2019-10-12 21:10,50.6304433333333,-96.9807583333333,9.0,13.3,309,973.25,2.3,99,5.67,0.0,1000.49,38.0
2019-10-12 21:20,50.6304383333333,-96.98076,9.6,13.1,314,973.38,2.3,99,5.67,0.0,1000.63,38.0
2019-10-12 22:40,50.6304233333333,-96.9807633333333,10.0,14.1,313,974.06,1.9,100,5.66,0.0,1001.32,360.0
2019-10-12 22:50,50.6304266666667,-96.9807633333333,10.0,13.6,315,974.15,1.9,100,5.66,0.0,1001.41,360.0
2019-10-12 23:00,50.6304233333333,-96.9807633333333,9.6,13.1,313,974.28,1.8,100,5.67,0.0,1001.55,360.0
2019-10-12 23:10,50.630425,-96.9807616666667,9.0,12.4,312,974.40,1.8,100,5.68,0.0,1001.68,360.0
2019-10-12 23:20,50.630425,-96.98076,9.0,13.1,314,974.56,1.7,100,5.68,0.0,1001.85,360.0
2019-10-12 23:30,50.6304233333333,-96.9807583333333,8.7,12.8,314,974.67,1.6,100,5.69,0.0,1001.97,360.0
2019-10-12 23:40,50.6304233333333,-96.9807583333333,8.4,12.8,311,974.65,1.6,100,5.69,0.0,1001.95,360.0
